EDT,Max TemperatureF,Mean TemperatureF,Min TemperatureF,Max Dew PointF,MeanDew PointF,Min DewpointF,Max Humidity, Mean Humidity, Min Humidity, Max Sea Level PressureIn, Mean Sea Level PressureIn, Min Sea Level PressureIn, Max VisibilityMiles, Mean VisibilityMiles, Min VisibilityMiles, Max Wind SpeedMPH, Mean Wind SpeedMPH, Max Gust SpeedMPH,PrecipitationIn, CloudCover, Events, WindDirDegrees
2012-3-1,46,42,37,43,39,36,93,88,76,29.95,29.73,29.63,10,8,2,16,9,21,0.19,7,,3
2012-3-2,42,38,35,39,33,30,87,78,70,30.12,30.03,29.86,10,10,9,18,8,30,0.00,8,,103
2012-3-3,55,50,44,54,41,21,100,72,33,29.76,29.57,29.49,10,8,0,20,11,30,0.19,4,,232
2012-3-4,46,42,37,23,20,18,49,42,34,29.73,29.68,29.59,10,10,10,17,9,24,0.00,3,,286
2012-3-5,44,37,30,21,17,10,60,45,29,30.18,29.98,29.77,10,10,10,17,11,23,0.00,1,,286
2012-3-6,42,32,23,25,14,5,70,46,25,30.64,30.56,30.39,10,10,10,17,9,29,0.00,0,,273
2012-3-7,64,48,33,37,29,25,81,50,26,30.60,30.49,30.37,10,10,8,18,10,26,0.03,0,,222
2012-3-8,71,61,51,48,46,43,76,61,41,30.34,30.19,30.00,10,10,10,26,13,37,0.00,2,,218
2012-3-9,62,52,42,50,29,18,87,50,30,30.18,30.06,29.86,10,10,9,25,15,31,0.02,5,,299
2012-3-10,42,35,28,16,11,7,48,36,29,30.53,30.43,30.27,10,10,10,18,11,25,0.00,0,,317
2012-3-11,60,45,30,32,24,18,64,46,27,30.55,30.46,30.37,10,10,10,17,8,23,0.00,0,,230
2012-3-12,71,55,39,43,34,30,70,47,23,30.38,30.28,30.16,10,10,10,13,8,16,0.00,0,,228
2012-3-13,73,63,53,55,51,43,94,68,47,30.14,30.05,29.95,10,10,3,14,8,22,0.18,5,,229
2012-3-14,71,61,51,54,42,21,88,56,15,30.16,30.09,30.01,10,10,10,17,8,25,0.00,0,,289
2012-3-15,53,48,42,43,39,27,93,77,35,30.33,30.27,30.18,10,8,1,16,8,22,0.00,6,,82
2012-3-16,48,45,42,45,43,43,100,93,87,30.29,30.20,30.13,10,3,1,14,9,20,0.00,8,,69
2012-3-17,55,47,39,48,43,37,100,85,63,30.36,30.28,30.19,10,4,0,12,3,,0.00,7,,94
2012-3-18,62,53,44,48,44,43,93,80,55,30.38,30.34,30.23,10,7,1,9,5,,0.00,5,,204
2012-3-19,71,58,46,55,47,43,93,69,38,30.24,30.21,30.18,10,10,8,13,7,16,0.00,0,,210
2012-3-20,64,58,51,57,53,50,100,89,72,30.34,30.28,30.24,10,5,0,9,3,,0.00,6,,91
2012-3-21,62,58,53,57,54,52,100,91,77,30.37,30.33,30.30,10,5,0,8,4,,0.00,8,,94
2012-3-22,73,64,55,61,56,54,100,85,61,30.31,30.22,30.11,10,5,0,14,5,,0.00,6,,206
2012-3-23,71,63,55,57,53,43,94,74,52,30.11,30.08,30.04,10,7,0,22,8,28,0.00,1,,28
2012-3-24,57,52,48,48,42,36,88,68,44,30.09,30.05,30.01,10,10,10,18,6,24,0.00,3,,79
2012-3-25,48,46,44,45,43,41,93,87,81,29.95,29.84,29.74,10,8,3,16,12,24,0.12,8,,36
2012-3-26,55,48,42,45,30,7,93,57,20,29.99,29.80,29.71,10,9,5,30,11,43,0.00,1,,309
2012-3-27,51,40,28,7,3,1,34,24,14,30.28,30.21,30.12,10,10,10,22,14,30,0.00,0,,318
2012-3-28,69,52,37,45,31,18,62,48,34,30.17,29.92,29.61,10,10,10,21,8,28,0.00,1,Thunderstorm,228
2012-3-29,60,56,51,48,38,30,63,50,39,29.85,29.72,29.59,10,10,10,26,15,33,0.00,7,,317
2012-3-30,51,43,35,30,25,21,60,47,30,30.09,30.04,29.99,10,10,10,13,8,16,0.02,2,,309
2012-3-31,46,42,39,41,38,34,93,85,62,29.99,29.87,29.83,10,5,2,17,8,23,0.35,8,,70